Regional Weather Roundup
Issued by NWS

Home | Current Version | Previous Version | Text Only | Print | Product List | Glossary On
Versions: 1 2 3 4 5 6 7 8 9 10 11 12 13 14 15 16 17 18 19 20 21 22 23 24 25 26 27 28 29 30 31 32 33 34 35 36 37 38 39 40 41 42 43 44 45 46 47 48 49 50
294
ASUS43 KLSX 120207
RWRMO

WEATHER SUMMARY FOR MISSOURI
NATIONAL WEATHER SERVICE SPRINGFIELD MO
800 PM CST MON DEC 11 2017

NOTE: "FAIR" INDICATES FEW OR NO CLOUDS BELOW 12,000 FEET WITH NO
       SIGNIFICANT WEATHER AND/OR OBSTRUCTIONS TO VISIBILITY.
       CURRENT SKY AND/OR WEATHER CONDITIONS ARE NOT AVAILABLE FOR
       CHILLICOTHE AND FARMINGTON.

MOZ001>031-035>038-043-044-053-054-120300-
...NORTHERN AND WESTERN MISSOURI...

CITY           SKY/WX    TMP DP  RH WIND       PRES   REMARKS
KANSAS CTY INT CLOUDY    43  29  57 N24G33    30.15R
KANSAS C DTWN  CLOUDY    46  31  55 NW18G31   30.14R
LEE`S SUMMIT   CLOUDY    44  35  70 NW15      30.13R
ST JOSEPH      PTCLDY    40  28  62 N24G35    30.18R WCI  29
CHILLICOTHE      N/A     39  28  64 NW13G31   30.13R
KIRKSVILLE     CLOUDY    39  32  76 NW17G26   30.05R WCI  30

$$
MOZ066>068-077>081-088>096-101>105-120300-
...SOUTHWEST MISSOURI...

CITY           SKY/WX    TMP DP  RH WIND       PRES   REMARKS
SPRINGFIELD    CLOUDY    48  27  44 NW17      30.07R
JOPLIN         CLOUDY    50  29  44 NW14G26   30.13R
BRANSON        MOCLDY    50  25  37 NW12G21   30.07R

$$
MOZ032>034-039>042-045>050-055>058-069>072-120300-
...CENTRAL MISSOURI...

CITY           SKY/WX    TMP DP  RH WIND       PRES   REMARKS
COLUMBIA       CLOUDY    46  33  60 NW18      30.03R
JEFFERSON CITY CLOUDY    49  32  52 NW15G23   30.04R
ROLLA          CLOUDY    48  31  51 NW25G38   30.01R
SEDALIA        CLOUDY    48  34  58 NW22G29   30.08R
WHITEMAN AFB   CLOUDY    46  34  63 NW18G28   30.05R
WARRENSBURG    CLOUDY    43  34  70 NW14G29   30.11R
OSAGE BEACH    CLOUDY    49  31  49 NW13G22   30.05R

$$
MOZ051-052-059>065-120300-
...EAST CENTRAL MISSOURI...

CITY           SKY/WX    TMP DP  RH WIND       PRES   REMARKS
ST LOUIS INTL  CLOUDY    47  33  58 NW15G26   29.94R
SPIRIT OF STL  CLOUDY    48  33  56 NW20G35   29.95R
ST CHARLES     CLOUDY    47  32  56 NW15G26   29.94R

$$
MOZ072>076-082>087-097>100-106>115-120300-
...SOUTH CENTRAL AND SOUTHEAST MISSOURI...

CITY           SKY/WX    TMP DP  RH WIND       PRES   REMARKS
CAPE GIRARDEAU MOCLDY    49  26  41 NW13      29.93R
FARMINGTON     CLOUDY    49  29  46 NW15G26   29.94R
POPLAR BLUFF   CLOUDY    53  23  31 W12G17    29.96R
WEST PLAINS    PTCLDY    50  22  33 NW10      30.01R

$$



USA.gov is the U.S. government's official web portal to all federal, state and local government web resources and services.